Location: Dompnac
(44.5644°N, 4.1026°E)
Time: 13:19:16
(UTC+00:00)

Cosmos 2026 Rocket - Pass Details

Date: 25 January 2021
Orbit: 940 x 1000 km, 82.9° (Epoch: 28 February)

Event Time Altitude Azimuth Distance (km) Brightness Sun altitude
Rises 04:28:43 0° 359° (N) 3,715 7.0 -28.5°
Reaches altitude 10° 04:31:33 10° 9° (N) 2,768 6.5 -28.0°
Maximum altitude 04:37:11 32° 72° (ENE) 1,641 5.7 -27.0°
Drops below altitude 10° 04:42:48 10° 134° (SE) 2,765 7.0 -26.0°
Sets 04:45:37 0° 144° (SE) 3,710 7.6 -25.5°
